Volver al catálogo

HULIANWANG DIGUI-144

ActivoComunicacionesLEO
NORAD 67442·PAYLOAD·🇨🇳 China

Lanzado Jan 13, 2026 desde Wenchang Space Launch Site

Loading…

Próximos Pases (próximas 24 horas)

TLE

ActualizadoSource: Space-Track

Época: Sep 14, 2026, 21:16 UTC

1 67442U 26007H   26257.88646191 -.00000088  00000-0  77889-4 0  9993
2 67442  50.0083 123.8997 0000483   6.0146 354.0732 13.29329921 32721

Sigue HULIANWANG DIGUI-144 en tiempo real con AllMySat

Download on the App Store